Regional Weather Roundup
Issued by NWS Newport/Morehead, NC

Current Version | Previous Version | Graphics & Text | Print | Product List | Glossary Off
Versions: 1 2 3 4 5 6 7 8 9 10 11 12 13 14 15 16 17 18 19 20 21 22 23 24 25 26 27 28 29 30 31 32 33 34 35 36 37 38 39 40 41 42 43 44 45 46 47 48 49 50

000
ASUS42 KMHX 231710
RWRMHX
WEATHER ROUNDUP FOR EASTERN NORTH CAROLINA
NATIONAL WEATHER SERVICE NEWPORT/MOREHEAD CITY NC
100 PM EDT WED JUL 23 2014

NOTE: "FAIR" INDICATES FEW OR NO CLOUDS BELOW 12,000 FEET
WITH NO SIGNIFICANT WEATHER AND/OR OBSTRUCTIONS TO VISIBILITY

NCZ015>017-031-032-045>047-102-103-231800-
NORTH COAST

CITY           SKY/WX    TMP DP  RH WIND       PRES   REMARKS
EDENTON        MOSUNNY   85  73  67 W6        30.02F
ELIZABETH CITY MOSUNNY   85  73  67 SW6       30.01F
KITTY HAWK     SUNNY     83  74  73 W6        30.01F
MANTEO         NOT AVBL

$$

NCZ045>047-081-094-103-104-231800-
CENTRAL COAST

CITY           SKY/WX    TMP DP  RH WIND       PRES   REMARKS
FRISCO         PTSUNNY   84  74  71 SW9       30.04S
SWANQUARTER      N/A     82 N/A N/A SW7G13    30.00S

$$

NCZ095-097-098-100-101-231800-
SOUTHERN COAST

CITY           SKY/WX    TMP DP  RH WIND       PRES   REMARKS
BEAUFORT       SUNNY     85  75  72 S9        30.03F
CEDAR ISLAND     N/A     82 N/A N/A NW2       30.09S
JACKSONVILLE   PTSUNNY   86  73  65 VRB6      30.03F
NEWPORT        NOT AVBL
PINEY ISLAND   SUNNY     83  75  77 VRB5      30.03F
WILMINGTON     MOSUNNY   88  73  61 CALM      30.04F


$$

NCZ011>013-027>030-043-044-078>080-089-090>093-098-231800-
COASTAL PLAIN

CITY           SKY/WX    TMP DP  RH WIND       PRES   REMARKS
AHOSKIE        MOSUNNY   85  74  68 CALM      30.01S
CLINTON        PTSUNNY   86  75  69 W3        30.04F
ELIZABETHTOWN  MOSUNNY   87  71  59 W5        30.05F
GOLDSBORO      MOSUNNY   88  78  73 VRB5      30.01F HX 101
GREENVILLE     MOSUNNY   86  73  66 SW5       30.04F
HAVELOCK       PTSUNNY   84  74  71 N6        30.04F
KENANSVILLE    PTSUNNY   85  71  63 NW3       30.04F
KINSTON        MOSUNNY   88  73  62 S3        30.03F
NEW BERN       SUNNY     88  74  63 CALM      30.04F
RICHLANDS      MOSUNNY   86  72  62 W6        30.04S
ROANOKE RAPIDS NOT AVBL
ROCKY MOUNT    MOSUNNY   88  72  58 SW7       30.01F
WASHINGTON     MOSUNNY   85  73  68 CALM      30.03F
WHITEVILLE     SUNNY     87  72  61 W3        30.05S

$$

AMZ130-135-150-152-154-156-158-170-250-252-270-ANZ085-086-088-633-658-670-231800-
MARINE OBSERVATIONS

STATION/POSITION TIME  TEMP    WIND        PRES    WAVE   SWELL
                       AIR SEA DIR/SP/G            HT/PER HT/PER
                 (UTC) (F)     (DEG/KT/KT) (MB)    (FT/S) (FT/S)
CHESAPEAKE LIGHT NOT AVBL
BUOY 44014       1700   77 79  240/  6/  8 1015.7    3/ 5   2/ 5
DUCK             1700   81 74  240/  6/  9 1015.5
2E DUCK          1700                        N/A     2/ 7
OREGON INLET     1700   81 80  190/  6/  7 1016.5
BUOY 44095       1700      80                N/A     3/ 8
20E OREGON INLET 1600          240/  6/  8   N/A
HATTERAS CG      1700   82 82  270/  9/ 11 1017.8
DIAMOND BUOY     1700          VRB  8/ 10  1017.4    3/ 9   2/ 9
CAPE LOOKOUT     1600   81     230/  8/  9 1017.7
BEAUFORT LAB     1700   81 80  200/  9/ 12 1016.9
30 SE NEW RIVER  1700   79 82  170/  6/  8 1018.3    3/ 8   3/ 8
5 SE WRIGHTSVILL 1600   78     120/  4/  6   N/A
BUOY 41002       1631   82 82  220/ 17/ 21 1020.5    4/ 5   2/ 8
BUOY 41004       1700   79 82   60/  4/  4 1018.0    3/ 7   3/ 7

$$


USA.gov is the U.S. government's official web portal to all federal, state and local government web resources and services.